When you browse on this site, cookies collect data to enhance your experience and personalize the content and advertising you see.
Visit our Privacy Policy to learn more. By continuing to use the site, you agree to this use of cookies and data.
  • In Lithuania
  • List of Countries
  • For 7 days
  • Water Temperature
  • Weather Map
  • Weather Widgets
  • user-avatar
    Login

    Hourly Weather Perth

    Today, 1 June, Monday

    Time Temperature Precipitation Wind Pressure Humidity
    00:00 +16°C° 0 mm 1 mps 768 mmHg 82%
    01:00 +15°C° 0 mm 1 mps 768 mmHg 83%
    02:00 +15°C° 0 mm 1 mps 768 mmHg 85%
    03:00 +15°C° 0 mm 1 mps 768 mmHg 85%
    04:00 +15°C° 0 mm 1 mps 768 mmHg 85%
    05:00 +15°C° 0 mm 1 mps 768 mmHg 85%
    06:00 +15°C° 0 mm 1 mps 769 mmHg 85%
    07:00 +15°C° 0 mm 1 mps 769 mmHg 84%
    08:00 +15°C° 0 mm 2 mps 769 mmHg 83%
    09:00 +16°C° 0 mm 2 mps 769 mmHg 77%
    10:00 +17°C° 0 mm 2 mps 769 mmHg 70%
    11:00 +19°C° 0 mm 2 mps 769 mmHg 64%
    12:00 +20°C° 0 mm 1 mps 768 mmHg 61%
    13:00 +21°C° 0 mm 1 mps 768 mmHg 58%
    14:00 +19°C° 0 mm 0 mps 767 mmHg 55%
    15:00 +21°C° 0 mm 1 mps 767 mmHg 57%
    16:00 +20°C° 0 mm 1 mps 767 mmHg 60%
    17:00 +20°C° 0 mm 1 mps 768 mmHg 62%
    18:00 +19°C° 0 mm 1 mps 768 mmHg 64%
    19:00 +19°C° 0 mm 1 mps 768 mmHg 66%
    20:00 +18°C° 0 mm 1 mps 768 mmHg 68%
    21:00 +17°C° 0 mm 2 mps 768 mmHg 69%
    22:00 +16°C° 0 mm 2 mps 768 mmHg 70%
    23:00 +16°C° 0 mm 2 mps 768 mmHg 72%

    Tomorrow, 2 June, Tuesday

    Time Temperature Precipitation Wind Pressure Humidity
    00:00 +15°C° 0 mm 2 mps 768 mmHg 72%
    01:00 +15°C° 0 mm 2 mps 768 mmHg 73%
    02:00 +15°C° 0 mm 2 mps 767 mmHg 73%
    03:00 +14°C° 0 mm 3 mps 768 mmHg 74%
    04:00 +14°C° 0 mm 3 mps 768 mmHg 75%
    05:00 +14°C° 0 mm 3 mps 768 mmHg 75%
    06:00 +14°C° 0 mm 4 mps 768 mmHg 75%
    07:00 +14°C° 0 mm 4 mps 768 mmHg 74%
    08:00 +14°C° 0 mm 4 mps 768 mmHg 74%
    09:00 +15°C° 0 mm 4 mps 768 mmHg 68%
    10:00 +18°C° 0 mm 4 mps 768 mmHg 62%
    11:00 +19°C° 0 mm 4 mps 768 mmHg 56%
    12:00 +20°C° 0 mm 4 mps 767 mmHg 53%
    13:00 +21°C° 0 mm 3 mps 766 mmHg 49%
    14:00 +22°C° 0 mm 3 mps 765 mmHg 46%
    15:00 +21°C° 0 mm 3 mps 766 mmHg 49%
    16:00 +21°C° 0 mm 2 mps 766 mmHg 52%
    17:00 +20°C° 0 mm 2 mps 766 mmHg 54%
    18:00 +19°C° 0 mm 2 mps 766 mmHg 55%
    19:00 +19°C° 0 mm 3 mps 766 mmHg 56%
    20:00 +18°C° 0 mm 3 mps 766 mmHg 57%
    21:00 +18°C° 0 mm 3 mps 766 mmHg 56%
    22:00 +18°C° 0 mm 3 mps 766 mmHg 56%
    23:00 +18°C° 0 mm 3 mps 766 mmHg 55%

    Day after tomorrow, 3 June, Wednesday

    Time Temperature Precipitation Wind Pressure Humidity
    00:00 +17°C° 0 mm 3 mps 766 mmHg 57%
    01:00 +17°C° 0 mm 3 mps 766 mmHg 58%
    02:00 +16°C° 0 mm 3 mps 766 mmHg 59%
    03:00 +17°C° 0 mm 3 mps 766 mmHg 58%
    04:00 +17°C° 0 mm 3 mps 766 mmHg 57%
    05:00 +17°C° 0 mm 3 mps 766 mmHg 56%
    06:00 +17°C° 0 mm 3 mps 766 mmHg 57%
    07:00 +17°C° 0 mm 2 mps 766 mmHg 57%
    08:00 +16°C° 0 mm 2 mps 766 mmHg 58%
    09:00 +18°C° 0 mm 2 mps 766 mmHg 53%
    10:00 +20°C° 0 mm 3 mps 766 mmHg 49%
    11:00 +21°C° 0 mm 3 mps 766 mmHg 45%
    12:00 +22°C° 0 mm 3 mps 766 mmHg 44%
    13:00 +24°C° 0 mm 3 mps 765 mmHg 42%
    14:00 +25°C° 0 mm 2 mps 765 mmHg 41%
    15:00 +24°C° 0 mm 2 mps 765 mmHg 45%
    16:00 +23°C° 0 mm 1 mps 765 mmHg 49%
    17:00 +20°C° 0 mm 0 mps 765 mmHg 53%
    18:00 +21°C° 0 mm 1 mps 765 mmHg 55%
    19:00 +20°C° 0 mm 1 mps 765 mmHg 56%
    20:00 +19°C° 0 mm 1 mps 765 mmHg 58%
    21:00 +19°C° 0 mm 1 mps 765 mmHg 59%
    22:00 +19°C° 0 mm 1 mps 766 mmHg 60%
    23:00 +17°C° 0 mm 2 mps 766 mmHg 61%

    4 June, Thursday

    Time Temperature Precipitation Wind Pressure Humidity
    00:00 +17°C° 0 mm 2 mps 766 mmHg 62%
    01:00 +18°C° 0 mm 1 mps 765 mmHg 64%
    02:00 +16°C° 0 mm 1 mps 765 mmHg 66%
    03:00 +16°C° 0 mm 1 mps 765 mmHg 67%
    04:00 +16°C° 0 mm 1 mps 765 mmHg 67%
    05:00 +16°C° 0 mm 1 mps 765 mmHg 67%
    06:00 +16°C° 0 mm 1 mps 765 mmHg 67%
    07:00 +16°C° 0 mm 1 mps 766 mmHg 66%
    08:00 +16°C° 0 mm 1 mps 766 mmHg 65%
    09:00 +19°C° 0 mm 1 mps 766 mmHg 59%
    10:00 +19°C° 0 mm 0 mps 766 mmHg 53%
    11:00 +21°C° 0 mm 0 mps 766 mmHg 47%
    12:00 +23°C° 0 mm 1 mps 766 mmHg 47%
    13:00 +24°C° 0 mm 1 mps 765 mmHg 46%
    14:00 +24°C° 0 mm 2 mps 765 mmHg 46%
    15:00 +23°C° 0 mm 2 mps 765 mmHg 53%
    16:00 +21°C° 0 mm 2 mps 765 mmHg 59%
    17:00 +20°C° 0 mm 3 mps 766 mmHg 66%
    18:00 +19°C° 0 mm 2 mps 766 mmHg 70%
    19:00 +19°C° 0 mm 2 mps 767 mmHg 74%
    20:00 +18°C° 0 mm 2 mps 767 mmHg 79%
    21:00 +17°C° 0 mm 2 mps 767 mmHg 80%
    22:00 +17°C° 0 mm 2 mps 767 mmHg 80%
    23:00 +16°C° 0 mm 2 mps 767 mmHg 81%

    5 June, Friday

    Time Temperature Precipitation Wind Pressure Humidity
    00:00 +16°C° 0 mm 2 mps 767 mmHg 81%
    01:00 +16°C° 0 mm 2 mps 767 mmHg 80%
    02:00 +16°C° 0 mm 2 mps 767 mmHg 80%
    03:00 +15°C° 0 mm 2 mps 767 mmHg 79%
    04:00 +15°C° 0 mm 2 mps 767 mmHg 78%
    05:00 +15°C° 0 mm 2 mps 767 mmHg 77%
    06:00 +15°C° 0 mm 2 mps 767 mmHg 76%
    07:00 +15°C° 0 mm 2 mps 768 mmHg 76%
    08:00 +15°C° 0 mm 2 mps 768 mmHg 76%
    09:00 +17°C° 0 mm 3 mps 768 mmHg 69%
    10:00 +19°C° 0 mm 3 mps 768 mmHg 62%
    11:00 +21°C° 0 mm 3 mps 768 mmHg 56%
    12:00 +21°C° 0 mm 3 mps 767 mmHg 53%
    13:00 +22°C° 0 mm 3 mps 767 mmHg 50%
    14:00 +24°C° 0 mm 2 mps 766 mmHg 48%
    15:00 +23°C° 0 mm 2 mps 766 mmHg 51%
    16:00 +21°C° 0 mm 2 mps 766 mmHg 54%
    17:00 +20°C° 0 mm 2 mps 766 mmHg 57%
    18:00 +20°C° 0 mm 2 mps 767 mmHg 59%
    19:00 +19°C° 0 mm 2 mps 767 mmHg 60%
    20:00 +18°C° 0 mm 3 mps 767 mmHg 61%
    21:00 +18°C° 0 mm 3 mps 767 mmHg 62%
    22:00 +18°C° 0 mm 3 mps 767 mmHg 62%
    23:00 +17°C° 0 mm 3 mps 766 mmHg 63%

    6 June, Saturday

    Time Temperature Precipitation Wind Pressure Humidity
    00:00 +17°C° 0 mm 4 mps 766 mmHg 63%
    01:00 +17°C° 0 mm 4 mps 766 mmHg 63%
    02:00 +17°C° 0 mm 4 mps 766 mmHg 63%
    03:00 +15°C° 0 mm 4 mps 766 mmHg 64%
    04:00 +15°C° 0 mm 5 mps 766 mmHg 65%
    05:00 +15°C° 0 mm 5 mps 765 mmHg 66%
    06:00 +15°C° 0 mm 5 mps 765 mmHg 67%
    07:00 +15°C° 0 mm 5 mps 766 mmHg 68%
    08:00 +15°C° 0 mm 5 mps 766 mmHg 69%
    09:00 +17°C° 0 mm 4 mps 766 mmHg 65%
    10:00 +18°C° 0 mm 4 mps 765 mmHg 60%
    11:00 +20°C° 0 mm 3 mps 765 mmHg 56%
    12:00 +21°C° 0 mm 3 mps 765 mmHg 53%
    13:00 +23°C° 0 mm 2 mps 764 mmHg 49%
    14:00 +24°C° 0 mm 1 mps 764 mmHg 46%
    15:00 +23°C° 0 mm 1 mps 764 mmHg 49%
    16:00 +22°C° 0 mm 1 mps 764 mmHg 52%
    17:00 +21°C° 0 mm 1 mps 764 mmHg 54%
    18:00 +21°C° 0 mm 1 mps 764 mmHg 57%
    19:00 +20°C° 0 mm 1 mps 764 mmHg 60%
    20:00 +19°C° 0 mm 1 mps 765 mmHg 62%
    21:00 +19°C° 0 mm 1 mps 765 mmHg 63%
    22:00 +19°C° 0 mm 1 mps 765 mmHg 64%
    23:00 +17°C° 0 mm 2 mps 765 mmHg 65%
    Show more